23-12-2022, 00:00:04,    250,    0.0,    7.0,   0.00,   0.00, 1002.9,   98.6, -999.0
23-12-2022, 00:00:14,    250,    0.0,    7.0,   0.00,   0.00, 1002.9,   98.6, -999.0
23-12-2022, 00:00:24,    250,    1.2,    7.0,   0.00,   0.00, 1003.1,   99.0, -999.0
23-12-2022, 00:00:34,    249,    0.5,    7.1,   0.00,   0.00, 1003.1,   99.0, -999.0
23-12-2022, 00:00:44,    250,    0.4,    7.0,   0.00,   0.00, 1003.0,   98.9, -999.0
23-12-2022, 00:00:54,    249,    0.0,    7.1,   0.00,   0.00, 1003.0,   98.7, -999.0
23-12-2022, 00:01:04,    250,    0.4,    7.1,   0.00,   0.00, 1003.1,   98.9, -999.0
23-12-2022, 00:01:14,    249,    0.1,    6.9,   0.00,   0.00, 1003.0,   98.7, -999.0
23-12-2022, 00:01:24,    249,    0.0,    6.9,   0.00,   0.00, 1003.0,   98.6, -999.0
23-12-2022, 00:01:34,    249,    0.0,    6.9,   0.00,   0.00, 1003.0,   98.6, -999.0
23-12-2022, 00:01:44,    250,    0.1,    6.9,   0.00,   0.00, 1003.0,   98.8, -999.0
23-12-2022, 00:01:54,    249,    0.0,    7.0,   0.00,   0.00, 1003.0,   98.8, -999.0
23-12-2022, 00:02:04,    249,    0.2,    7.0,   0.00,   0.00, 1003.1,   98.9, -999.0
23-12-2022, 00:02:14,    249,    0.4,    7.1,   0.00,   0.00, 1003.1,   99.0, -999.0
23-12-2022, 00:02:24,    249,    0.4,    7.1,   0.00,   0.00, 1003.1,   98.9, -999.0
23-12-2022, 00:02:34,    249,    0.0,    7.0,   0.00,   0.00, 1003.0,   98.6, -999.0
23-12-2022, 00:02:43,    250,    0.0,    7.0,   0.00,   0.00, 1003.0,   98.7, -999.0
23-12-2022, 00:02:54,    249,    0.0,    6.9,   0.00,   0.00, 1003.0,   98.7, -999.0
23-12-2022, 00:03:04,    249,    0.0,    7.0,   0.00,   0.00, 1003.0,   98.7, -999.0
23-12-2022, 00:03:14,    249,    0.0,    7.0,   0.00,   0.00, 1003.0,   98.7, -999.0
23-12-2022, 00:03:23,    249,    0.0,    7.0,   0.00,   0.00, 1003.0,   98.7, -999.0
23-12-2022, 00:03:34,    249,    0.0,    7.0,   0.00,   0.00, 1002.9,   98.6, -999.0
23-12-2022, 00:03:44,    249,    0.0,    7.0,   0.00,   0.00, 1002.9,   98.7, -999.0
23-12-2022, 00:03:53,    249,    0.0,    7.0,   0.00,   0.00, 1003.0,   98.6, -999.0
23-12-2022, 00:04:03,    249,    0.0,    7.0,   0.00,   0.00, 1003.0,   98.7, -999.0
23-12-2022, 00:04:14,    249,    0.0,    7.0,   0.00,   0.00, 1002.9,   98.7, -999.0
23-12-2022, 00:04:23,    250,    0.0,    7.0,   0.00,   0.00, 1003.0,   98.6, -999.0
23-12-2022, 00:04:33,    249,    0.0,    7.1,   0.00,   0.00, 1003.0,   98.6, -999.0
23-12-2022, 00:04:43,    252,    0.0,    7.1,   0.00,   0.00, 1002.9,   98.7, -999.0
23-12-2022, 00:04:54,    249,    0.0,    7.1,   0.00,   0.00, 1002.9,   98.7, -999.0
23-12-2022, 00:05:03,    249,    0.0,    7.0,   0.00,   0.00, 1002.9,   98.6, -999.0
23-12-2022, 00:05:13,    249,    0.0,    7.0,   0.00,   0.00, 1002.9,   98.6, -999.0
23-12-2022, 00:05:24,    249,    0.0,    7.0,   0.00,   0.00, 1002.9,   98.7, -999.0
23-12-2022, 00:05:33,    249,    0.0,    7.0,   0.00,   0.00, 1002.9,   98.6, -999.0
23-12-2022, 00:05:43,    249,    0.0,    7.0,   0.00,   0.00, 1002.9,   98.6, -999.0
23-12-2022, 00:05:53,    249,    0.0,    7.0,   0.00,   0.00, 1002.9,   98.6, -999.0
23-12-2022, 00:06:04,    249,    0.0,    7.0,   0.00,   0.00, 1002.9,   98.6, -999.0
23-12-2022, 00:06:13,    250,    0.0,    6.9,   0.00,   0.00, 1002.9,   98.6, -999.0
23-12-2022, 00:06:23,    249,    0.0,    7.0,   0.00,   0.00, 1002.9,   98.7, -999.0
23-12-2022, 00:06:33,    249,    0.0,    7.0,   0.00,   0.00, 1002.9,   98.6, -999.0
23-12-2022, 00:06:43,    249,    0.0,    7.0,   0.00,   0.00, 1002.9,   98.7, -999.0
23-12-2022, 00:06:53,    248,    0.0,    7.0,   0.00,   0.00, 1002.9,   98.6, -999.0
23-12-2022, 00:07:03,    250,    0.6,    6.9,   0.00,   0.00, 1003.0,   98.9, -999.0
23-12-2022, 00:07:13,    249,    0.4,    7.0,   0.00,   0.00, 1003.0,   99.0, -999.0
23-12-2022, 00:07:23,    249,    0.1,    7.0,   0.00,   0.00, 1002.9,   98.8, -999.0
23-12-2022, 00:07:33,    249,    0.1,    7.0,   0.00,   0.00, 1002.9,   98.8, -999.0
23-12-2022, 00:07:43,    249,    0.0,    7.0,   0.00,   0.00, 1002.9,   98.6, -999.0
23-12-2022, 00:07:53,    249,    0.0,    7.0,   0.00,   0.00, 1002.9,   98.8, -999.0
23-12-2022, 00:08:03,    249,    0.0,    6.9,   0.00,   0.00, 1002.9,   98.7, -999.0
23-12-2022, 00:08:13,    249,    0.0,    6.9,   0.00,   0.00, 1002.9,   98.6, -999.0
23-12-2022, 00:08:23,    249,    0.0,    7.0,   0.00,   0.00, 1002.9,   98.6, -999.0
23-12-2022, 00:08:33,    249,    0.0,    6.9,   0.00,   0.00, 1002.8,   98.6, -999.0
23-12-2022, 00:08:43,    249,    0.0,    6.9,   0.00,   0.00, 1002.8,   98.6, -999.0
23-12-2022, 00:08:53,    249,    0.0,    6.9,   0.00,   0.00, 1002.9,   98.6, -999.0
23-12-2022, 00:09:03,    249,    0.0,    6.9,   0.00,   0.00, 1002.9,   98.6, -999.0
23-12-2022, 00:09:13,    249,    0.0,    6.9,   0.00,   0.00, 1002.9,   98.8, -999.0
23-12-2022, 00:09:23,    249,    0.3,    6.9,   0.00,   0.00, 1002.9,   98.8, -999.0
23-12-2022, 00:09:33,    249,    0.4,    6.9,   0.00,   0.00, 1003.0,   99.0, -999.0
23-12-2022, 00:09:43,    248,    0.0,    6.9,   0.00,   0.00, 1002.9,   98.7, -999.0
23-12-2022, 00:09:53,    248,    0.0,    6.9,   0.00,   0.00, 1003.0,   98.8, -999.0
23-12-2022, 00:10:03,    249,    0.1,    6.9,   0.00,   0.00, 1002.9,   98.7, -999.0
23-12-2022, 00:10:13,    248,    0.0,    6.9,   0.00,   0.00, 1002.9,   98.8, -999.0
23-12-2022, 00:10:23,    248,    0.1,    6.9,   0.00,   0.00, 1002.9,   98.7, -999.0
23-12-2022, 00:10:33,    248,    0.0,    6.8,   0.00,   0.00, 1002.8,   98.6, -999.0
23-12-2022, 00:10:43,    248,    0.0,    6.9,   0.00,   0.00, 1002.9,   98.6, -999.0
23-12-2022, 00:10:53,    248,    0.0,    6.9,   0.00,   0.00, 1002.9,   98.7, -999.0
23-12-2022, 00:11:02,    248,    0.0,    6.9,   0.00,   0.00, 1002.8,   98.6, -999.0
23-12-2022, 00:11:13,    249,    0.0,    6.9,   0.00,   0.00, 1002.9,   98.7, -999.0
23-12-2022, 00:11:23,    248,    0.0,    6.9,   0.00,   0.00, 1002.9,   98.8, -999.0
23-12-2022, 00:11:33,    249,    0.0,    6.9,   0.00,   0.00, 1002.8,   98.6, -999.0
23-12-2022, 00:11:42,    248,    0.0,    6.9,   0.00,   0.00, 1002.8,   98.6, -999.0
23-12-2022, 00:11:53,    249,    0.0,    6.8,   0.00,   0.00, 1002.8,   98.7, -999.0
23-12-2022, 00:12:03,    248,    0.0,    6.9,   0.00,   0.00, 1002.8,   98.6, -999.0
23-12-2022, 00:12:12,    248,    0.0,    6.9,   0.00,   0.00, 1002.8,   98.6, -999.0
23-12-2022, 00:12:23,    249,    0.0,    6.9,   0.00,   0.00, 1002.8,   98.6, -999.0
23-12-2022, 00:12:33,    249,    0.0,    6.9,   0.00,   0.00, 1002.8,   98.6, -999.0
23-12-2022, 00:12:42,    248,    0.0,    6.9,   0.00,   0.00, 1002.9,   98.6, -999.0
23-12-2022, 00:12:52,    248,    0.0,    6.9,   0.00,   0.00, 1002.8,   98.6, -999.0
23-12-2022, 00:13:03,    248,    0.2,    6.9,   0.00,   0.00, 1002.9,   98.8, -999.0
23-12-2022, 00:13:13,    249,    0.4,    6.9,   0.00,   0.00, 1002.9,   98.9, -999.0
23-12-2022, 00:13:22,    248,    0.2,    7.0,   0.00,   0.00, 1002.9,   98.9, -999.0
23-12-2022, 00:13:32,    248,    0.1,    6.9,   0.00,   0.00, 1002.9,   98.9, -999.0
23-12-2022, 00:13:43,    249,    0.0,    6.9,   0.00,   0.00, 1002.9,   98.8, -999.0
23-12-2022, 00:13:52,    249,    0.3,    6.9,   0.00,   0.00, 1003.0,   99.0, -999.0
23-12-2022, 00:14:02,    248,    0.2,    7.0,   0.00,   0.00, 1003.0,   99.0, -999.0
23-12-2022, 00:14:12,    248,    0.0,    6.9,   0.00,   0.00, 1002.9,   98.6, -999.0
23-12-2022, 00:14:22,    248,    0.0,    6.9,   0.00,   0.00, 1002.9,   98.7, -999.0
23-12-2022, 00:14:32,    249,    0.0,    6.8,   0.00,   0.00, 1002.9,   98.6, -999.0
23-12-2022, 00:14:42,    249,    0.0,    6.9,   0.00,   0.00, 1002.9,    9.9, -999.0
23-12-2022, 00:14:52,    249,    0.0,    6.9,   0.00,   0.00, 1002.9,    0.0, -999.0
23-12-2022, 00:15:02,    249,    0.0,    6.9,   0.00,   0.00, 1002.9,    0.1, -999.0
23-12-2022, 00:15:12,    248,    0.0,    6.8,   0.00,   0.00, 1002.9,    0.0, -999.0
23-12-2022, 00:15:22,    249,    0.0,    6.9,   0.00,   0.00, 1002.9,    0.1, -999.0
23-12-2022, 00:15:32,    249,    0.0,    6.8,   0.00,   0.00, 1002.9,    0.1, -999.0
23-12-2022, 00:15:42,    248,    0.0,    6.8,   0.00,   0.00, 1002.9,    0.0, -999.0
23-12-2022, 00:15:52,    248,    0.0,    6.8,   0.00,   0.00, 1002.9,    0.0, -999.0
23-12-2022, 00:16:02,    248,    0.0,    6.8,   0.00,   0.00, 1002.9,    0.1, -999.0
23-12-2022, 00:16:12,    248,    0.0,    6.9,   0.00,   0.00, 1002.9,    0.2, -999.0
23-12-2022, 00:16:22,    249,    0.0,    6.9,   0.00,   0.00, 1002.9,    0.1, -999.0
23-12-2022, 00:16:32,    249,    0.0,    6.8,   0.00,   0.00, 1002.9,    0.0, -999.0
23-12-2022, 00:16:42,    248,    0.0,    6.8,   0.00,   0.00, 1002.9,    0.0, -999.0
23-12-2022, 00:16:52,    248,    0.0,    6.8,   0.00,   0.00, 1002.9,    0.0, -999.0
23-12-2022, 00:17:02,    248,    0.0,    6.9,   0.00,   0.00, 1002.9,    0.1, -999.0
23-12-2022, 00:17:12,    248,    0.0,    6.8,   0.00,   0.00, 1003.0,    0.2, -999.0
23-12-2022, 00:17:22,    248,    0.0,    6.9,   0.00,   0.00, 1002.9,    0.0, -999.0
23-12-2022, 00:17:32,    249,    0.0,    6.9,   0.00,   0.00, 1003.0,    0.0, -999.0
23-12-2022, 00:17:42,    248,    0.0,    7.0,   0.00,   0.00, 1002.9,    0.0, -999.0
23-12-2022, 00:17:52,    248,    0.0,    7.0,   0.00,   0.00, 1003.0,    0.0, -999.0
23-12-2022, 00:18:02,    248,    0.0,    6.9,   0.00,   0.00, 1003.0,    0.0, -999.0
23-12-2022, 00:18:12,    215,    0.2,    7.0,   0.00,   0.00, 1003.1,    0.4, -999.0
23-12-2022, 00:18:22,    215,    0.1,    6.9,   0.00,   0.00, 1003.0,    0.1, -999.0
23-12-2022, 00:18:32,    214,    0.0,    6.9,   0.00,   0.00, 1002.9,    0.1, -999.0
23-12-2022, 00:18:42,    215,    0.0,    6.9,   0.00,   0.00, 1003.0,    0.1, -999.0
23-12-2022, 00:18:52,    214,    0.0,    6.9,   0.00,   0.00, 1003.0,    0.1, -999.0
23-12-2022, 00:19:02,    214,    0.0,    6.8,   0.00,   0.00, 1003.0,    0.0, -999.0
23-12-2022, 00:19:12,    215,    0.0,    6.8,   0.00,   0.00, 1003.0,    0.0, -999.0
23-12-2022, 00:19:22,    214,    0.0,    6.9,   0.00,   0.00, 1003.0,    0.1, -999.0
23-12-2022, 00:19:32,    215,    0.0,    6.9,   0.00,   0.00, 1003.0,    0.0, -999.0
23-12-2022, 00:19:42,    216,    0.2,    6.9,   0.00,   0.00, 1003.1,    0.1, -999.0
23-12-2022, 00:19:52,    216,    0.0,    6.8,   0.00,   0.00, 1003.0,    0.0, -999.0
23-12-2022, 00:20:02,    268,    0.6,    7.0,   0.00,   0.00, 1003.1,    0.1, -999.0
23-12-2022, 00:20:12,    250,    1.1,    7.0,   0.00,   0.00, 1003.1,    0.1, -999.0
23-12-2022, 00:20:22,    250,    0.2,    6.9,   0.00,   0.00, 1003.1,    0.0, -999.0
23-12-2022, 00:20:31,    250,    0.0,    6.8,   0.00,   0.00, 1003.0,    0.0, -999.0
23-12-2022, 00:20:42,    250,    0.0,    6.9,   0.00,   0.00, 1003.1,    0.0, -999.0
23-12-2022, 00:20:52,    250,    0.0,    6.9,   0.00,   0.00, 1003.0,    0.0, -999.0
23-12-2022, 00:21:01,    250,    0.0,    6.8,   0.00,   0.00, 1003.0,    0.1, -999.0
23-12-2022, 00:21:11,    250,    0.0,    6.9,   0.00,   0.00, 1003.0,    0.1, -999.0
23-12-2022, 00:21:22,    236,    0.0,    6.9,   0.00,   0.00, 1003.0,    0.1, -999.0
23-12-2022, 00:21:32,    236,    0.0,    6.9,   0.00,   0.00, 1003.0,    0.0, -999.0
23-12-2022, 00:21:41,    236,    0.0,    6.9,   0.00,   0.00, 1003.0,    0.0, -999.0
23-12-2022, 00:21:51,    236,    0.0,    6.9,   0.00,   0.00, 1003.0,    0.0, -999.0
23-12-2022, 00:22:02,    236,    0.0,    6.9,   0.00,   0.00, 1003.0,    0.1, -999.0
23-12-2022, 00:22:11,    236,    0.0,    6.8,   0.00,   0.00, 1003.0,    0.0, -999.0
23-12-2022, 00:22:21,    236,    0.0,    6.9,   0.00,   0.00, 1003.1,    0.0, -999.0
23-12-2022, 00:22:31,    236,    0.0,    6.8,   0.00,   0.00, 1003.0,    0.0, -999.0
23-12-2022, 00:22:42,    236,    0.2,    6.8,   0.00,   0.00, 1003.1,    0.1, -999.0
23-12-2022, 00:22:51,    237,    0.9,    7.0,   0.00,   0.00, 1003.2,    0.0, -999.0
23-12-2022, 00:23:01,    245,    0.7,    7.0,   0.00,   0.00, 1003.1,    0.1, -999.0
23-12-2022, 00:23:11,    259,    0.8,    6.9,   0.00,   0.00, 1003.1,    0.1, -999.0
23-12-2022, 00:23:21,    258,    0.4,    6.9,   0.00,   0.00, 1003.1,    0.0, -999.0
23-12-2022, 00:23:31,    257,    0.0,    6.8,   0.00,   0.00, 1003.0,    0.1, -999.0
23-12-2022, 00:23:41,    258,    0.0,    6.8,   0.00,   0.00, 1003.0,    0.1, -999.0
23-12-2022, 00:23:51,    258,    0.0,    6.8,   0.00,   0.00, 1003.0,    0.3, -999.0
23-12-2022, 00:24:01,    258,    0.0,    6.8,   0.00,   0.00, 1003.0,    0.0, -999.0
23-12-2022, 00:24:11,    258,    0.0,    6.8,   0.00,   0.00, 1003.0,    0.1, -999.0
23-12-2022, 00:24:21,    258,    0.0,    6.8,   0.00,   0.00, 1003.0,    0.0, -999.0
23-12-2022, 00:24:31,    258,    0.0,    6.8,   0.00,   0.00, 1003.0,    0.1, -999.0
23-12-2022, 00:24:41,    258,    0.0,    6.8,   0.00,   0.00, 1003.0,    0.0, -999.0
23-12-2022, 00:24:51,    258,    0.2,    6.8,   0.00,   0.00, 1003.0,    0.0, -999.0
23-12-2022, 00:25:01,    260,    0.1,    6.8,   0.00,   0.00, 1003.0,    0.0, -999.0
23-12-2022, 00:25:11,    260,    0.0,    6.8,   0.00,   0.00, 1003.0,    0.1, -999.0
23-12-2022, 00:25:21,    260,    0.0,    6.8,   0.00,   0.00, 1003.0,    0.0, -999.0
23-12-2022, 00:25:31,    259,    0.0,    6.8,   0.00,   0.00, 1003.0,    0.1, -999.0
23-12-2022, 00:25:41,    260,    0.0,    6.8,   0.00,   0.00, 1003.0,    0.0, -999.0
23-12-2022, 00:25:51,    260,    0.0,    6.8,   0.00,   0.00, 1003.0,    0.0, -999.0
23-12-2022, 00:26:01,    260,    0.1,    6.8,   0.00,   0.00, 1003.0,    0.1, -999.0
23-12-2022, 00:26:11,    257,    0.3,    6.9,   0.00,   0.00, 1003.1,    0.0, -999.0
23-12-2022, 00:26:21,    257,    0.0,    6.8,   0.00,   0.00, 1003.0,    0.1, -999.0
23-12-2022, 00:26:31,    257,    0.0,    6.8,   0.00,   0.00, 1003.0,    0.0, -999.0
23-12-2022, 00:26:41,    257,    0.0,    6.8,   0.00,   0.00, 1003.0,    0.0, -999.0
23-12-2022, 00:26:51,    257,    0.2,    6.9,   0.00,   0.00, 1003.1,    0.1, -999.0
23-12-2022, 00:27:01,    257,    0.0,    6.8,   0.00,   0.00, 1003.0,    0.0, -999.0
23-12-2022, 00:27:11,    256,    0.0,    6.8,   0.00,   0.00, 1003.0,    0.0, -999.0
23-12-2022, 00:27:21,    256,    0.0,    6.8,   0.00,   0.00, 1003.0,    0.0, -999.0
23-12-2022, 00:27:31,    257,    0.0,    6.7,   0.00,   0.00, 1003.0,    0.1, -999.0
23-12-2022, 00:27:41,    256,    0.0,    6.7,   0.00,   0.00, 1003.0,    0.0, -999.0
23-12-2022, 00:27:51,    256,    0.4,    6.8,   0.00,   0.00, 1003.1,    0.0, -999.0
23-12-2022, 00:28:01,    255,    0.1,    6.9,   0.00,   0.00, 1003.1,    0.0, -999.0
23-12-2022, 00:28:11,    256,    0.0,    6.8,   0.00,   0.00, 1003.0,    0.0, -999.0
23-12-2022, 00:28:21,    256,    0.0,    6.8,   0.00,   0.00, 1003.0,    0.0, -999.0
23-12-2022, 00:28:31,    256,    0.0,    6.8,   0.00,   0.00, 1003.0,    0.0, -999.0
23-12-2022, 00:28:41,    256,    0.0,    6.8,   0.00,   0.00, 1003.0,    0.2, -999.0
23-12-2022, 00:28:51,    256,    0.0,    6.8,   0.00,   0.00, 1003.0,    0.0, -999.0
23-12-2022, 00:29:01,    255,    0.0,    6.8,   0.00,   0.00, 1003.0,    0.0, -999.0
23-12-2022, 00:29:11,    256,    0.0,    6.8,   0.00,   0.00, 1003.0,    0.0, -999.0
23-12-2022, 00:29:21,    255,    0.0,    6.8,   0.00,   0.00, 1003.0,    0.0, -999.0
23-12-2022, 00:29:30,    256,    0.0,    6.8,   0.00,   0.00, 1003.0,    0.1, -999.0
23-12-2022, 00:29:41,    255,    0.1,    6.8,   0.00,   0.00, 1003.0,    0.0, -999.0
23-12-2022, 00:29:51,    255,    0.6,    6.9,   0.00,   0.00, 1003.1,    0.1, -999.0
23-12-2022, 00:30:00,    255,    0.2,    6.8,   0.00,   0.00, 1003.1,    0.1, -999.0
23-12-2022, 00:30:10,    255,    0.6,    6.8,   0.00,   0.00, 1003.1,    0.1, -999.0
23-12-2022, 00:30:21,    255,    0.0,    6.8,   0.00,   0.00, 1003.0,    0.1, -999.0
23-12-2022, 00:30:31,    255,    0.0,    6.7,   0.00,   0.00, 1003.0,    0.0, -999.0
23-12-2022, 00:30:40,    254,    0.0,    6.7,   0.00,   0.00, 1003.0,    0.1, -999.0
23-12-2022, 00:30:50,    254,    0.0,    6.7,   0.00,   0.00, 1003.0,    0.0, -999.0
23-12-2022, 00:31:01,    254,    0.0,    6.7,   0.00,   0.00, 1003.0,    0.0, -999.0
23-12-2022, 00:31:11,    256,    0.0,    6.8,   0.00,   0.00, 1003.0,    0.2, -999.0
23-12-2022, 00:31:21,    254,    0.0,    6.8,   0.00,   0.00, 1003.0,    0.0, -999.0
23-12-2022, 00:31:30,    254,    0.0,    6.8,   0.00,   0.00, 1002.9,    0.0, -999.0
23-12-2022, 00:31:40,    254,    0.0,    6.7,   0.00,   0.00, 1003.0,    0.3, -999.0
23-12-2022, 00:31:51,    254,    0.0,    6.8,   0.00,   0.00, 1003.0,    0.0, -999.0
23-12-2022, 00:32:00,    254,    0.0,    6.8,   0.00,   0.00, 1003.0,    0.0, -999.0
23-12-2022, 00:32:10,    254,    0.0,    6.8,   0.00,   0.00, 1003.0,    0.0, -999.0
23-12-2022, 00:32:20,    255,    0.0,    6.8,   0.00,   0.00, 1003.0,    0.1, -999.0
23-12-2022, 00:32:30,    254,    0.0,    6.8,   0.00,   0.00, 1003.0,    0.1, -999.0
23-12-2022, 00:32:40,    254,    0.0,    6.8,   0.00,   0.00, 1003.0,    0.1, -999.0
23-12-2022, 00:32:50,    254,    0.0,    6.7,   0.00,   0.00, 1003.0,    0.0, -999.0
23-12-2022, 00:33:00,    212,    0.2,    6.8,   0.00,   0.00, 1003.1,    0.0, -999.0
23-12-2022, 00:33:10,    211,    0.0,    6.8,   0.00,   0.00, 1003.0,    0.0, -999.0
23-12-2022, 00:33:20,    211,    0.0,    6.7,   0.00,   0.00, 1003.0,    0.0, -999.0
23-12-2022, 00:33:30,    211,    0.0,    6.7,   0.00,   0.00, 1003.0,    0.1, -999.0
23-12-2022, 00:33:40,    212,    0.0,    6.8,   0.00,   0.00, 1003.0,    0.2, -999.0
23-12-2022, 00:33:50,    211,    0.0,    6.7,   0.00,   0.00, 1003.0,    0.0, -999.0
23-12-2022, 00:34:00,    212,    0.0,    6.7,   0.00,   0.00, 1003.0,    0.0, -999.0
23-12-2022, 00:34:10,    254,    0.6,    6.7,   0.00,   0.00, 1003.1,    0.2, -999.0
23-12-2022, 00:34:20,    254,    0.0,    6.7,   0.00,   0.00, 1003.0,    0.1, -999.0
23-12-2022, 00:34:30,    254,    0.0,    6.7,   0.00,   0.00, 1003.0,    0.1, -999.0
23-12-2022, 00:34:40,    254,    0.0,    6.7,   0.00,   0.00, 1003.0,    0.0, -999.0
23-12-2022, 00:34:50,    254,    0.0,    6.6,   0.00,   0.00, 1003.0,    0.0, -999.0
23-12-2022, 00:35:00,    254,    0.0,    6.7,   0.00,   0.00, 1003.0,    0.0, -999.0
23-12-2022, 00:35:10,    255,    0.0,    6.5,   0.00,   0.00, 1003.0,    0.0, -999.0
23-12-2022, 00:35:20,    254,    0.0,    6.6,   0.00,   0.00, 1003.0,    0.0, -999.0
23-12-2022, 00:35:30,    255,    0.0,    6.6,   0.00,   0.00, 1003.0,    0.1, -999.0
23-12-2022, 00:35:40,    254,    0.0,    6.6,   0.00,   0.00, 1003.0,    0.1, -999.0
23-12-2022, 00:35:50,    254,    0.0,    6.7,   0.00,   0.00, 1003.0,    0.0, -999.0
23-12-2022, 00:36:00,    256,    0.0,    6.7,   0.00,   0.00, 1003.0,    0.1, -999.0
23-12-2022, 00:36:10,    254,    0.0,    6.6,   0.00,   0.00, 1003.0,    0.0, -999.0
23-12-2022, 00:36:20,    254,    0.0,    6.7,   0.00,   0.00, 1003.0,    0.0, -999.0
23-12-2022, 00:36:30,    254,    0.0,    6.7,   0.00,   0.00, 1003.0,    0.0, -999.0
23-12-2022, 00:36:40,    255,    0.1,    6.8,   0.00,   0.00, 1003.1,    0.1, -999.0
23-12-2022, 00:36:50,    254,    0.0,    6.7,   0.00,   0.00, 1003.0,    0.1, -999.0
23-12-2022, 00:37:00,    254,    0.0,    6.6,   0.00,   0.00, 1003.0,    0.0, -999.0
23-12-2022, 00:37:10,    254,    0.0,    6.7,   0.00,   0.00, 1003.0,    0.1, -999.0
23-12-2022, 00:37:20,    253,    0.0,    6.7,   0.00,   0.00, 1003.0,    0.0, -999.0
23-12-2022, 00:37:29,    252,    0.1,    6.7,   0.00,   0.00, 1003.1,    0.0, -999.0
23-12-2022, 00:37:40,    254,    0.9,    6.7,   0.00,   0.00, 1003.2,    0.0, -999.0
23-12-2022, 00:37:50,    254,    0.4,    6.7,   0.00,   0.00, 1003.1,    0.1, -999.0
23-12-2022, 00:38:00,    254,    0.2,    6.7,   0.00,   0.00, 1003.1,    0.1, -999.0
23-12-2022, 00:38:10,    254,    0.0,    6.7,   0.00,   0.00, 1003.0,    0.1, -999.0
23-12-2022, 00:38:20,    254,    0.0,    6.6,   0.00,   0.00, 1003.0,    0.1, -999.0
23-12-2022, 00:38:30,    254,    0.0,    6.6,   0.00,   0.00, 1003.1,    0.1, -999.0
23-12-2022, 00:38:39,    254,    0.0,    6.6,   0.00,   0.00, 1003.1,    0.0, -999.0
23-12-2022, 00:38:50,    254,    0.1,    6.7,   0.00,   0.00, 1003.1,    0.1, -999.0
23-12-2022, 00:39:00,    254,    0.0,    6.6,   0.00,   0.00, 1003.0,    0.1, -999.0
23-12-2022, 00:39:09,    254,    0.0,    6.6,   0.00,   0.00, 1003.1,    0.0, -999.0
23-12-2022, 00:39:19,    254,    0.0,    6.6,   0.00,   0.00, 1003.1,    0.0, -999.0
23-12-2022, 00:39:30,    254,    0.4,    6.8,   0.00,   0.00, 1003.2,    0.1, -999.0
23-12-2022, 00:39:40,    254,    0.3,    6.7,   0.00,   0.00, 1003.2,    0.1, -999.0
23-12-2022, 00:39:49,    254,    0.3,    6.7,   0.00,   0.00, 1003.1,    0.0, -999.0
23-12-2022, 00:39:59,    254,    0.0,    6.6,   0.00,   0.00, 1003.1,    0.1, -999.0
23-12-2022, 00:40:10,    254,    0.0,    6.6,   0.00,   0.00, 1003.0,    0.0, -999.0
23-12-2022, 00:40:19,    254,    0.0,    6.6,   0.00,   0.00, 1003.0,    0.1, -999.0
23-12-2022, 00:40:29,    254,    0.0,    6.7,   0.00,   0.00, 1003.1,    0.0, -999.0
23-12-2022, 00:40:39,    254,    0.0,    6.6,   0.00,   0.00, 1003.0,    0.0, -999.0
23-12-2022, 00:40:49,    254,    0.0,    6.7,   0.00,   0.00, 1003.1,    0.0, -999.0
23-12-2022, 00:40:59,    255,    0.0,    6.6,   0.00,   0.00, 1003.0,    0.0, -999.0
23-12-2022, 00:41:09,    254,    0.0,    6.6,   0.00,   0.00, 1003.0,    0.2, -999.0
23-12-2022, 00:41:20,    254,    0.0,    6.6,   0.00,   0.00, 1003.1,    0.0, -999.0
23-12-2022, 00:41:29,    254,    0.0,    6.6,   0.00,   0.00, 1003.0,    0.0, -999.0
23-12-2022, 00:41:39,    254,    0.0,    6.7,   0.00,   0.00, 1003.0,    0.0, -999.0
23-12-2022, 00:41:49,    254,    0.0,    6.7,   0.00,   0.00, 1003.0,    0.1, -999.0
23-12-2022, 00:41:59,    254,    0.0,    6.6,   0.00,   0.00, 1003.0,    0.1, -999.0
23-12-2022, 00:42:09,    254,    0.0,    6.6,   0.00,   0.00, 1003.0,    0.0, -999.0
23-12-2022, 00:42:19,    256,    0.3,    6.7,   0.00,   0.00, 1003.1,    0.0, -999.0
23-12-2022, 00:42:29,    256,    0.6,    6.8,   0.00,   0.00, 1003.2,    0.1, -999.0
23-12-2022, 00:42:39,    256,    0.1,    6.7,   0.00,   0.00, 1003.1,    0.0, -999.0
23-12-2022, 00:42:49,    256,    0.0,    6.5,   0.00,   0.00, 1003.0,    0.1, -999.0
23-12-2022, 00:42:59,    256,    0.0,    6.6,   0.00,   0.00, 1003.0,    0.1, -999.0
23-12-2022, 00:43:09,    256,    0.0,    6.6,   0.00,   0.00, 1003.0,    0.0, -999.0
23-12-2022, 00:43:19,    256,    0.0,    6.6,   0.00,   0.00, 1003.0,    0.0, -999.0
23-12-2022, 00:43:29,    256,    0.0,    6.6,   0.00,   0.00, 1003.0,    0.1, -999.0
23-12-2022, 00:43:39,    256,    0.0,    6.5,   0.00,   0.00, 1003.0,    0.1, -999.0
23-12-2022, 00:43:49,    256,    0.0,    6.5,   0.00,   0.00, 1003.0,    0.0, -999.0
23-12-2022, 00:43:59,    256,    0.6,    6.6,   0.00,   0.00, 1003.1,    0.1, -999.0
23-12-2022, 00:44:09,    256,    0.0,    6.6,   0.00,   0.00, 1003.0,    0.1, -999.0
23-12-2022, 00:44:19,    246,    0.6,    6.7,   0.00,   0.00, 1003.1,    0.1, -999.0
23-12-2022, 00:44:29,    243,    1.7,    6.7,   0.00,   0.00, 1003.1,    0.0, -999.0
23-12-2022, 00:44:39,    242,    1.2,    6.7,   0.00,   0.00, 1003.2,    0.0, -999.0
23-12-2022, 00:44:49,    242,    0.8,    6.7,   0.00,   0.00, 1003.2,    0.1, -999.0
23-12-2022, 00:44:59,    242,    0.5,    6.6,   0.00,   0.00, 1003.1,    0.1, -999.0
23-12-2022, 00:45:09,    240,    0.7,    6.6,   0.00,   0.00, 1003.1,    0.1, -999.0
23-12-2022, 00:45:19,    240,    0.0,    6.6,   0.00,   0.00, 1003.0,    0.1, -999.0
23-12-2022, 00:45:29,    240,    0.0,    6.5,   0.00,   0.00, 1003.0,    0.0, -999.0
23-12-2022, 00:45:39,    240,    0.0,    6.6,   0.00,   0.00, 1003.0,    0.0, -999.0
23-12-2022, 00:45:49,    240,    0.0,    6.6,   0.00,   0.00, 1003.0,    0.1, -999.0
23-12-2022, 00:45:59,    241,    0.0,    6.6,   0.00,   0.00, 1003.0,    0.0, -999.0
23-12-2022, 00:46:09,    240,    0.0,    6.5,   0.00,   0.00, 1003.0,    0.1, -999.0
23-12-2022, 00:46:19,    240,    0.0,    6.5,   0.00,   0.00, 1003.0,    0.0, -999.0
23-12-2022, 00:46:29,    240,    0.0,    6.6,   0.00,   0.00, 1003.0,    0.1, -999.0
23-12-2022, 00:46:39,    240,    0.0,    6.5,   0.00,   0.00, 1003.0,    0.1, -999.0
23-12-2022, 00:46:49,    240,    0.0,    6.6,   0.00,   0.00, 1003.0,    0.0, -999.0